GW0940 Weather Reports


Display with metric or nautical units.
time (UTC)temp
F
wind
direction
speed
MPH
gust
MPH
rain 1hr
in
rain 24hr
in
rain mn
in
humidity
%
barometer
mb
20260507194945 57 10 3.0 3.0 0.00 0.02 0.02 78 1010.8
20260507194441 57 114 0.0 2.0 0.00 0.02 0.02 76 1010.7
20260507193937 57 331 2.0 2.0 0.00 0.02 0.02 78 1010.7
20260507193434 56 90 0.0 3.0 0.00 0.02 0.02 76 1010.6
20260507192931 56 300 3.0 3.0 0.00 0.02 0.02 78 1010.3
20260507192427 56 307 3.0 4.0 0.00 0.02 0.02 76 1010.7
20260507191924 57 0 0.0 2.0 0.00 0.02 0.02 79 1011.2
20260507191420 56 303 2.0 3.0 0.00 0.02 0.02 79 1011.3
20260507190917 57 355 0.0 3.0 0.00 0.02 0.02 76 1011.1
20260507190415 57 270 0.0 2.0 0.00 0.02 0.02 75 1010.8
20260507185914 57 90 1.0 1.0 0.00 0.02 0.02 71 1010.9
20260507185410 57 147 0.0 2.0 0.00 0.02 0.02 71 1011.1
20260507184907 58 123 2.0 2.0 0.00 0.02 0.02 65 1011.3
20260507184405 58 90 0.0 2.0 0.00 0.02 0.02 66 1011.0
20260507183902 58 140 2.0 3.0 0.00 0.02 0.02 63 1011.8
20260507183359 59 90 0.0 2.0 0.00 0.02 0.02 64 1011.4
20260507182856 59 0 2.0 2.0 0.00 0.02 0.02 62 1011.5
20260507182352 58 120 1.0 2.0 0.00 0.02 0.02 64 1011.2
20260507181848 58 144 2.0 3.0 0.00 0.02 0.02 65 1011.5
20260507181344 58 106 0.0 2.0 0.00 0.02 0.02 67 1011.5
20260507180841 57 132 0.0 3.0 0.00 0.02 0.02 67 1011.7
20260507180338 58 114 1.0 2.0 0.00 0.02 0.02 68 1011.7
20260507175834 58 99 0.0 3.0 0.00 0.02 0.02 67 1011.7
20260507175331 58 306 1.0 3.0 0.00 0.02 0.02 64 1011.7
20260507174828 57 301 0.0 3.0 0.00 0.02 0.02 63 1011.6
20260507174326 57 295 2.0 3.0 0.00 0.02 0.02 63 1011.7
20260507173823 58 331 1.0 2.0 0.00 0.02 0.02 63 1011.8
20260507173320 58 300 2.0 2.0 0.00 0.02 0.02 59 1011.7
20260507172816 58 100 3.0 4.0 0.00 0.02 0.02 62 1011.6
20260507172313 59 81 0.0 3.0 0.00 0.02 0.02 57 1011.6
20260507171809 60 8 0.0 2.0 0.00 0.02 0.02 70 1011.7
20260507171306 59 144 0.0 2.0 0.00 0.02 0.02 71 1011.6
20260507170803 58 99 0.0 2.0 0.00 0.02 0.02 72 1012.0
20260507170259 58 90 0.0 3.0 0.00 0.02 0.02 71 1012.4
20260507165756 58 140 0.0 2.0 0.00 0.02 0.02 73 1012.4
20260507165252 58 8 0.0 0.0 0.00 0.02 0.02 72 1012.4
20260507164748 58 281 4.0 5.0 0.00 0.02 0.02 70 1012.4
20260507164245 58 99 0.0 3.0 0.00 0.02 0.02 71 1012.5
20260507163742 58 60 0.0 1.0 0.00 0.02 0.02 70 1012.5
20260507163240 58 151 0.0 3.0 0.00 0.02 0.02 71 1012.2
20260507162736 57 97 0.0 2.0 0.00 0.02 0.02 69 1012.6
20260507162232 57 152 2.0 5.0 0.00 0.02 0.02 68 1012.7
20260507161729 57 147 2.0 6.0 0.00 0.02 0.02 69 1012.5
20260507161225 57 154 2.0 4.0 0.00 0.02 0.02 70 1012.5
20260507160721 57 142 3.0 3.0 0.00 0.02 0.02 72 1012.7
20260507160218 57 139 2.0 4.0 0.00 0.02 0.02 72 1012.6
20260507155714 57 48 0.0 2.0 0.00 0.02 0.02 74 1012.9
20260507155210 57 145 3.0 4.0 0.00 0.02 0.02 73 1012.9
20260507154706 58 34 0.0 3.0 0.00 0.02 0.02 69 1012.9
20260507154205 58 29 2.0 3.0 0.00 0.02 0.02 69 1012.6
20260507153701 57 139 2.0 5.0 0.00 0.02 0.02 69 1012.8
20260507153157 58 131 0.0 6.0 0.00 0.02 0.02 71 1012.8
20260507152653 58 126 0.0 4.0 0.00 0.02 0.02 73 1012.7
20260507152150 58 135 2.0 3.0 0.00 0.02 0.02 73 1012.6
20260507151646 59 126 5.0 9.0 0.00 0.02 0.02 73 1012.5
20260507151143 59 109 1.0 4.0 0.00 0.02 0.02 73 1012.5
20260507150640 59 154 2.0 2.0 0.00 0.02 0.02 77 1012.6
20260507150137 58 114 2.0 2.0 0.00 0.02 0.02 78 1012.9
20260507145632 58 103 1.0 3.0 0.00 0.02 0.02 79 1013.0
20260507145130 58 117 2.0 2.0 0.00 0.02 0.02 77 1013.2
20260507144626 58 150 4.0 6.0 0.00 0.02 0.02 75 1013.0
20260507144124 58 154 4.0 5.0 0.00 0.02 0.02 77 1013.1
20260507143620 59 148 4.0 5.0 0.00 0.02 0.02 80 1013.1
20260507143118 59 151 2.0 3.0 0.00 0.02 0.02 83 1013.0
20260507142613 58 146 2.0 3.0 0.00 0.02 0.02 85 1013.0
20260507142110 58 157 2.0 4.0 0.00 0.02 0.02 85 1013.3
20260507141606 58 141 3.0 5.0 0.00 0.02 0.02 85 1013.2
20260507141103 58 121 2.0 2.0 0.00 0.02 0.02 85 1013.1
20260507140600 57 123 2.0 4.0 0.00 0.02 0.02 83 1013.6
20260507140057 57 114 0.0 3.0 0.00 0.02 0.02 85 1013.3
20260507135554 57 90 1.0 5.0 0.00 0.02 0.02 84 1013.6
20260507135051 58 281 3.0 4.0 0.00 0.02 0.02 82 1013.2
20260507134548 59 117 2.0 4.0 0.00 0.02 0.02 82 1013.2
20260507134043 59 40 0.0 2.0 0.00 0.02 0.02 84 1013.1
20260507133540 58 143 2.0 3.0 0.00 0.02 0.02 82 1013.3
20260507133038 58 307 0.0 4.0 0.00 0.02 0.02 82 1013.3
20260507132534 58 84 1.0 2.0 0.00 0.02 0.02 83 1013.1
20260507132031 57 141 2.0 6.0 0.00 0.02 0.02 83 1013.4
20260507131528 58 135 2.0 3.0 0.00 0.02 0.02 83 1013.2
20260507131025 59 140 3.0 3.0 0.00 0.02 0.02 83 1013.1
20260507130522 59 143 2.0 3.0 0.00 0.02 0.02 83 1013.1
20260507130020 58 120 0.0 3.0 0.00 0.02 0.02 84 1013.1
20260507125518 58 147 2.0 2.0 0.00 0.02 0.02 84 1013.0
20260507125015 57 115 2.0 6.0 0.00 0.02 0.02 84 1013.4
20260507124512 58 334 0.0 4.0 0.00 0.02 0.02 83 1013.3
20260507124009 58 262 0.0 5.0 0.00 0.02 0.02 83 1013.2
20260507123507 58 5 0.0 3.0 0.00 0.02 0.02 85 1013.4
20260507123004 58 98 1.0 3.0 0.00 0.02 0.02 86 1013.3
20260507122459 57 153 3.0 4.0 0.00 0.02 0.02 88 1013.0
20260507121955 57 140 3.0 5.0 0.00 0.02 0.02 88 1013.0
20260507121451 57 151 0.0 2.0 0.00 0.02 0.02 89 1012.9
20260507120947 57 90 0.0 3.0 0.00 0.02 0.02 89 1012.7
20260507120443 57 111 0.0 2.0 0.00 0.02 0.02 89 1012.4
20260507115940 57 23 2.0 4.0 0.00 0.02 0.02 89 1012.9
20260507115436 57 99 0.0 2.0 0.00 0.02 0.02 90 1013.0
20260507114932 56 133 3.0 3.0 0.00 0.02 0.02 91 1013.1
20260507114429 56 135 0.0 5.0 0.00 0.02 0.02 90 1013.1
20260507113926 56 106 0.0 3.0 0.00 0.02 0.02 91 1013.2
20260507113423 57 121 2.0 3.0 0.00 0.02 0.02 92 1012.7
20260507112920 56 112 2.0 3.0 0.00 0.02 0.02 91 1012.8
20260507112418 56 145 1.0 4.0 0.00 0.02 0.02 92 1013.0
20260507111915 56 119 2.0 3.0 0.00 0.02 0.02 92 1012.7
20260507111412 56 138 3.0 3.0 0.00 0.02 0.02 92 1012.6
20260507110908 56 135 2.0 3.0 0.00 0.02 0.02 92 1012.8
20260507110404 56 120 1.0 2.0 0.00 0.02 0.02 93 1012.9
20260507105901 56 107 2.0 3.0 0.00 0.02 0.02 93 1012.7
20260507105358 56 159 2.0 2.0 0.00 0.02 0.02 94 1012.2
20260507104855 55 123 2.0 2.0 0.00 0.02 0.02 93 1012.6
20260507104351 56 146 3.0 5.0 0.00 0.02 0.02 94 1012.6
20260507103847 56 99 0.0 3.0 0.00 0.02 0.02 94 1012.5
20260507103344 56 152 2.0 2.0 0.00 0.02 0.02 94 1012.4
20260507102840 56 26 1.0 5.0 0.00 0.02 0.02 94 1011.9
20260507102337 56 126 0.0 3.0 0.00 0.02 0.02 94 1011.8
20260507101833 56 129 2.0 3.0 0.00 0.02 0.02 95 1012.2
20260507101328 56 33 0.0 3.0 0.00 0.02 0.02 96 1011.9
20260507100825 57 90 0.0 2.0 0.00 0.02 0.02 97 1012.0
20260507100323 56 98 0.0 2.0 0.00 0.02 0.02 97 1012.4
20260507095821 56 278 1.0 3.0 0.00 0.02 0.02 97 1012.1
20260507095317 56 336 2.0 2.0 0.00 0.02 0.02 98 1012.3
20260507094814 56 148 0.0 2.0 0.00 0.02 0.02 97 1012.1
20260507094311 56 114 0.0 1.0 0.00 0.02 0.02 97 1012.0
20260507093808 56 0 0.0 1.0 0.00 0.02 0.02 97 1011.8
20260507093307 56 117 0.0 3.0 0.00 0.02 0.02 97 1011.8
20260507092804 56 126 0.0 2.0 0.00 0.02 0.02 97 1012.0
20260507092300 56 126 0.0 1.0 0.00 0.02 0.02 97 1012.1
20260507091756 56 120 3.0 3.0 0.00 0.02 0.02 97 1011.9
20260507091253 56 147 2.0 4.0 0.00 0.02 0.02 97 1011.6
20260507090753 56 137 4.0 5.0 0.00 0.02 0.02 97 1011.3
20260507090250 57 142 2.0 4.0 0.00 0.02 0.02 96 1011.5
20260507085747 57 139 2.0 2.0 0.00 0.02 0.02 96 1011.7
20260507085244 57 143 3.0 5.0 0.00 0.02 0.02 96 1011.6
20260507084742 57 152 2.0 5.0 0.00 0.02 0.02 97 1011.8
20260507084237 57 140 3.0 5.0 0.00 0.02 0.02 97 1011.9
20260507083735 57 145 1.0 3.0 0.00 0.02 0.02 97 1011.8
20260507083232 57 114 0.0 2.0 0.00 0.02 0.02 97 1011.9
20260507082728 57 123 3.0 3.0 0.00 0.02 0.02 97 1011.9
20260507082224 57 157 4.0 5.0 0.00 0.02 0.02 97 1011.8
20260507081721 57 123 0.0 3.0 0.00 0.02 0.02 97 1011.6
20260507081217 57 140 0.0 2.0 0.00 0.02 0.02 97 1011.5
20260507080714 57 132 2.0 5.0 0.00 0.02 0.02 97 1011.4
20260507080210 57 140 0.0 4.0 0.00 0.02 0.02 97 1011.1
20260507075705 57 150 2.0 5.0 0.00 0.02 0.02 97 1011.2
20260507075202 57 140 0.0 3.0 0.00 0.02 0.02 98 1011.2
20260507074658 57 135 3.0 5.0 0.00 0.02 0.02 98 1011.2
20260507074157 57 150 2.0 2.0 0.00 0.02 0.02 98 1010.8
20260507073653 57 146 3.0 3.0 0.00 0.02 0.02 97 1011.0
20260507073149 57 142 2.0 3.0 0.00 0.02 0.02 97 1010.8
20260507072647 57 147 2.0 3.0 0.00 0.02 0.02 97 1011.0
20260507072144 57 132 0.0 3.0 0.00 0.02 0.02 97 1010.8
20260507071642 57 155 3.0 4.0 0.00 0.02 0.02 97 1011.1
20260507071138 57 116 7.0 10.0 0.00 0.02 0.02 97 1011.3
20260507070635 57 111 3.0 6.0 0.00 0.02 0.02 98 1011.1
20260507070132 58 149 5.0 5.0 0.00 0.02 0.02 98 1011.4
20260507065628 58 150 8.0 9.0 0.00 0.02 0.02 98 1011.3
20260507065125 58 134 4.0 16.0 0.00 0.02 0.02 99 1011.3
20260507064623 58 165 4.0 7.0 0.00 0.02 0.02 99 1011.2
20260507064121 58 144 4.0 7.0 0.00 0.02 0.02 99 1011.2
20260507063618 58 142 5.0 8.0 0.02 0.02 0.02 99 1010.9
20260507063115 58 146 3.0 10.0 0.02 0.02 0.02 99 1010.4
20260507062612 58 153 3.0 5.0 0.00 0.02 0.02 99 1010.0
20260507062110 58 153 4.0 4.0 0.00 0.02 0.02 99 1009.9
20260507061607 58 185 0.0 3.0 0.00 0.02 0.02 99 1009.8
20260507061105 58 154 0.0 2.0 0.00 0.02 0.02 99 1009.9
20260507060603 58 114 2.0 2.0 0.00 0.02 0.02 99 1009.8
20260507060059 58 103 1.0 3.0 0.02 0.02 0.02 99 1009.6
20260507055554 58 139 0.0 2.0 0.02 0.02 0.02 99 1009.7
20260507055051 59 139 2.0 3.0 0.00 0.02 0.02 99 1010.0
20260507054547 59 154 3.0 5.0 0.00 0.02 0.02 99 1010.1
20260507054044 59 156 2.0 5.0 0.00 0.02 0.02 99 1010.5
20260507053542 60 142 3.0 4.0 0.00 0.02 0.02 99 1010.6
20260507053040 60 145 4.0 5.0 0.02 0.02 0.02 99 1010.6
20260507052538 60 132 4.0 5.0 0.02 0.02 0.02 99 1010.6
20260507052034 60 158 3.0 5.0 0.00 0.01 0.01 99 1010.8
20260507051532 61 138 3.0 4.0 0.00 0.01 0.01 99 1010.7
20260507051029 61 147 3.0 5.0 0.02 0.01 0.01 99 1010.5
20260507050525 62 154 4.0 5.0 0.02 0.01 0.01 99 1010.7
20260507050022 63 154 3.0 10.0 0.00 0.00 0.00 99 1010.6
20260507045518 64 153 5.0 6.0 0.02 0.00 0.00 99 1010.7
20260507045016 64 132 2.0 2.0 0.02 0.00 0.00 99 1010.5
20260507044512 64 155 3.0 7.0 0.00 0.00 0.00 99 1010.4
20260507044009 64 90 0.0 0.0 0.00 0.00 0.00 99 1010.5
20260507043505 64 270 0.0 1.0 0.00 0.00 0.00 99 1009.8
20260507043002 64 114 0.0 1.0 0.00 0.00 0.00 99 1010.2
20260507042458 63 166 0.0 0.0 0.00 0.00 0.00 99 1010.3
20260507041954 63 166 0.0 2.0 0.00 0.00 0.00 99 1010.2
20260507041451 63 157 0.0 0.0 0.00 0.00 0.00 99 1009.9
20260507040948 63 157 0.0 0.0 0.00 0.00 0.00 99 1010.0
20260507040443 63 157 0.0 0.0 0.00 0.00 0.00 99 1009.8
20260507035940 63 160 1.0 3.0 0.00 0.07 0.07 99 1009.7
20260507035436 64 165 0.0 1.0 0.00 0.07 0.07 99 1009.9
20260507034933 64 263 0.0 0.0 0.00 0.07 0.07 99 1009.8
20260507034430 64 263 0.0 0.0 0.00 0.07 0.07 99 1009.6
20260507033928 64 263 0.0 0.0 0.00 0.07 0.07 99 1009.9
20260507033426 64 263 0.0 0.0 0.00 0.07 0.07 99 1009.8
20260507032922 64 279 0.0 0.0 0.00 0.07 0.07 99 1009.8
20260507032420 63 154 0.0 0.0 0.00 0.07 0.07 99 1010.0
20260507031915 63 154 0.0 0.0 0.00 0.07 0.07 99 1010.4
20260507031412 63 154 0.0 0.0 0.00 0.07 0.07 99 1010.1
20260507030909 63 154 0.0 0.0 0.00 0.07 0.07 99 1010.0
20260507030406 63 154 0.0 0.0 0.00 0.07 0.07 99 1009.7
20260507025903 63 154 0.0 0.0 0.00 0.07 0.07 99 1009.7
20260507025401 63 154 0.0 2.0 0.00 0.07 0.07 99 1009.4
20260507024858 63 166 0.0 1.0 0.00 0.07 0.07 99 1009.4
20260507024355 63 151 0.0 1.0 0.00 0.07 0.07 99 1009.3
20260507023851 63 154 0.0 1.0 0.00 0.07 0.07 99 1009.1
20260507023348 63 151 1.0 2.0 0.00 0.07 0.07 98 1009.2
20260507022845 64 165 0.0 0.0 0.00 0.07 0.07 98 1009.1
20260507022342 64 165 0.0 0.0 0.00 0.07 0.07 97 1009.5
20260507021838 64 0 0.0 0.0 0.00 0.07 0.07 97 1009.3
20260507021333 64 0 0.0 0.0 0.00 0.07 0.07 98 1009.7
20260507020831 64 0 0.0 0.0 0.00 0.07 0.07 98 1009.6
20260507020328 64 151 0.0 0.0 0.00 0.07 0.07 98 1009.5
20260507015825 64 151 0.0 0.0 0.00 0.07 0.07 98 1009.7
20260507015323 64 151 0.0 0.0 0.00 0.07 0.07 98 1009.9
20260507014820 64 151 0.0 0.0 0.00 0.07 0.07 98 1010.1
20260507014316 63 151 0.0 0.0 0.00 0.07 0.07 98 1010.1
20260507013812 64 160 1.0 1.0 0.00 0.07 0.07 97 1009.9
20260507013310 64 165 0.0 1.0 0.00 0.07 0.07 96 1009.8
20260507012807 64 160 0.0 1.0 0.00 0.07 0.07 96 1010.0
20260507012306 64 166 0.0 1.0 0.00 0.07 0.07 95 1009.8
20260507011800 65 165 0.0 0.0 0.00 0.07 0.07 95 1009.6
20260507011257 65 165 0.0 0.0 0.00 0.07 0.07 95 1009.4
20260507010756 65 157 0.0 0.0 0.00 0.07 0.07 94 1009.6
20260507010252 66 165 0.0 1.0 0.00 0.07 0.07 94 1009.4
20260507005750 66 166 0.0 2.0 0.00 0.07 0.07 94 1009.6
20260507005246 66 165 0.0 0.0 0.00 0.07 0.07 93 1009.5
20260507004743 66 165 0.0 0.0 0.00 0.07 0.07 92 1009.2
20260507004241 67 165 1.0 1.0 0.00 0.07 0.07 92 1009.6
20260507003736 67 180 0.0 0.0 0.00 0.07 0.07 91 1009.5
20260507003232 67 180 0.0 0.0 0.00 0.07 0.07 91 1009.6
20260507002728 67 180 0.0 0.0 0.00 0.07 0.07 91 1009.5
20260507002224 67 99 0.0 0.0 0.00 0.07 0.07 90 1009.4
20260507001721 68 131 0.0 3.0 0.00 0.07 0.07 90 1009.4
20260507001218 68 285 0.0 2.0 0.00 0.07 0.07 89 1009.2
20260507000715 68 286 2.0 3.0 0.00 0.07 0.07 88 1009.3
20260507000212 69 299 3.0 3.0 0.00 0.07 0.07 88 1009.3
20260506235708 69 162 1.0 2.0 0.00 0.07 0.07 87 1009.2
20260506235203 69 166 0.0 0.0 0.00 0.07 0.07 87 1009.2
20260506234700 70 342 1.0 2.0 0.00 0.07 0.07 86 1008.9
20260506234157 70 0 0.0 3.0 0.00 0.07 0.07 86 1009.0
20260506233655 70 117 0.0 0.0 0.00 0.07 0.07 86 1008.8
20260506233151 70 289 1.0 3.0 0.00 0.07 0.07 86 1008.8
20260506232648 70 20 3.0 3.0 0.00 0.07 0.07 85 1008.9
20260506232143 70 292 2.0 3.0 0.00 0.07 0.07 85 1009.1
20260506231640 70 159 2.0 3.0 0.00 0.07 0.07 85 1008.9
20260506231139 70 306 1.0 4.0 0.00 0.07 0.07 85 1008.8
20260506230635 70 270 0.0 3.0 0.00 0.07 0.07 85 1008.9
20260506230132 71 106 1.0 4.0 0.00 0.07 0.07 85 1008.7
20260506225629 71 348 1.0 5.0 0.00 0.07 0.07 84 1008.8
20260506225125 71 40 2.0 3.0 0.00 0.07 0.07 84 1008.8
20260506224622 71 188 0.0 3.0 0.00 0.07 0.07 84 1008.8
20260506224118 71 270 0.0 2.0 0.00 0.07 0.07 84 1008.8
20260506223615 71 6 0.0 3.0 0.00 0.07 0.07 84 1009.0
20260506223111 71 261 0.0 4.0 0.00 0.07 0.07 83 1008.9
20260506222608 71 310 0.0 3.0 0.00 0.07 0.07 83 1008.6
20260506222104 72 166 0.0 3.0 0.00 0.07 0.07 83 1008.9
20260506221602 71 114 2.0 3.0 0.00 0.07 0.07 83 1008.6
20260506221100 72 159 2.0 3.0 0.00 0.07 0.07 83 1008.7
20260506220556 72 160 0.0 3.0 0.00 0.07 0.07 83 1009.0
20260506220051 71 103 0.0 3.0 0.00 0.07 0.07 83 1008.8
20260506215548 71 283 0.0 4.0 0.00 0.07 0.07 83 1008.8
20260506215044 72 90 0.0 3.0 0.00 0.07 0.07 83 1009.1
20260506214541 72 281 0.0 4.0 0.00 0.07 0.07 83 1008.8
20260506214038 71 343 4.0 5.0 0.00 0.07 0.07 82 1009.0
20260506213536 71 26 2.0 6.0 0.00 0.07 0.07 83 1009.0
20260506213033 71 33 0.0 5.0 0.00 0.07 0.07 82 1009.1
20260506212530 71 99 0.0 4.0 0.00 0.07 0.07 83 1009.0
20260506212025 71 94 3.0 5.0 0.00 0.07 0.07 83 1008.9
20260506211521 71 107 2.0 8.0 0.00 0.07 0.07 83 1008.9
20260506211018 71 225 0.0 7.0 0.00 0.07 0.07 83 1009.0
20260506210515 71 54 0.0 7.0 0.00 0.07 0.07 84 1009.0
20260506210011 71 282 6.0 8.0 0.00 0.07 0.07 83 1008.9
20260506205508 71 30 3.0 5.0 0.00 0.07 0.07 83 1008.8
20260506205003 71 350 3.0 4.0 0.00 0.07 0.07 83 1008.8
20260506204502 71 275 2.0 6.0 0.00 0.07 0.07 83 1008.8
20260506203958 70 0 2.0 3.0 0.00 0.07 0.07 84 1008.9
20260506203456 70 291 0.0 4.0 0.00 0.07 0.07 84 1008.9
20260506202953 70 337 1.0 6.0 0.00 0.07 0.07 84 1009.0
20260506202450 70 282 0.0 3.0 0.00 0.07 0.07 84 1009.1
20260506201946 69 109 1.0 4.0 0.00 0.07 0.07 86 1008.9
20260506201444 69 318 3.0 7.0 0.00 0.07 0.07 85 1008.9
20260506200940 69 26 3.0 4.0 0.00 0.07 0.07 86 1008.9
20260506200437 69 0 2.0 3.0 0.00 0.07 0.07 86 1008.9
20260506195933 68 346 2.0 5.0 0.00 0.07 0.07 87 1008.9
20260506195430 68 169 0.0 3.0 0.00 0.07 0.07 87 1009.1